Silver Shadow — C6FN6 — position and weather

sailwx.info

Track history (hours):
 
Tides and Currents Weather Stations Pressure Air Temp Water Temp Dewpoint Dewpoint Depression Visibility Wind Speed Wind Dir Waves Ship Positions

Silver Shadow

Operator: V Ships Leisure SAM

Last reported at 2017-Jun-24 02:04 UTC. Time now 2017-Jun-25 08:36 UTC.
Position N 52°17' W 130°06'.

Length 186 m; draft 6.1 m.

Type: Ship. MMSI: 308628000.

Date/timePositionNaut miles runAvg speedWind from/ knotsBaromVisibWave heightAir tempDewpointWater temp
2017-Jun-24 02:04N 52°17' W 130°06'115.4
2017-Jun-24 02:00N 52°17' W 130°06'815.4
2017-Jun-24 01:30N 52°10' W 130°00'814.9
2017-Jun-24 01:00N 52°03' W 129°55'510.6
2017-Jun-24 00:30N 51°58' W 129°51'815.3
2017-Jun-24 00:01N 51°51' W 129°45'815.2
2017-Jun-23 23:31N 51°46' W 129°36'815.5
2017-Jun-23 23:00N 51°42' W 129°26'815.5
2017-Jun-23 22:30N 51°38' W 129°15'815.5
2017-Jun-23 22:01N 51°34' W 129°05'714.5
2017-Jun-23 21:30N 51°30' W 128°55'815.1
2017-Jun-23 21:00N 51°25' W 128°45'815.2
2017-Jun-23 20:31N 51°21' W 128°35'715.0
2017-Jun-23 20:01N 51°16' W 128°26'815.1
2017-Jun-23 19:31N 51°12' W 128°16'815.1
2017-Jun-23 19:00N 51°07' W 128°06'815.2
2017-Jun-23 18:30N 51°03' W 127°56'715.1
2017-Jun-23 18:01N 50°59' W 127°46'713.5
2017-Jun-23 17:30N 50°54' W 127°38'917.4
2017-Jun-23 17:00N 50°50' W 127°27'917.2
2017-Jun-23 16:30N 50°46' W 127°14'917.3
2017-Jun-23 16:00N 50°43' W 127°01'816.7
2017-Jun-23 15:30N 50°39' W 126°50'1116.3
2017-Jun-23 14:49N 50°31' W 126°38'1818.1
2017-Jun-23 13:50N 50°29' W 126°10'818.0
2017-Jun-23 13:22N 50°25' W 125°58'719.6
2017-Jun-23 13:00N 50°23' W 125°47'1018.3
2017-Jun-23 12:28N 50°21' W 125°32'714.5
2017-Jun-23 12:00N 50°17' W 125°24'816.9
2017-Jun-23 11:31N 50°09' W 125°21'611.2
2017-Jun-23 11:00N 50°05' W 125°16'510.3
2017-Jun-23 10:30N 49°60' W 125°12'5 9.9
2017-Jun-23 10:00N 49°56' W 125°07'510.4
2017-Jun-23 09:30N 49°53' W 125°01'510.8
2017-Jun-23 09:00N 49°49' W 124°55'510.4
2017-Jun-23 08:30N 49°46' W 124°49'510.7
2017-Jun-23 08:00N 49°42' W 124°43'510.4
2017-Jun-23 07:30N 49°38' W 124°38'510.3
2017-Jun-23 06:59N 49°33' W 124°33'510.3
2017-Jun-23 06:30N 49°29' W 124°29'5 9.9
2017-Jun-23 06:00N 49°26' W 124°23'5 9.8
2017-Jun-23 05:30N 49°25' W 124°16'510.1
2017-Jun-23 05:00N 49°23' W 124°08'510.0
2017-Jun-23 04:30N 49°22' W 124°01'510.3
2017-Jun-23 04:00N 49°21' W 123°53'5 9.9
2017-Jun-23 03:30N 49°19' W 123°46'5 9.9
2017-Jun-23 03:00N 49°19' W 123°39'510.1
2017-Jun-23 02:30N 49°19' W 123°31'510.1
2017-Jun-23 02:00N 49°19' W 123°23'510.6
2017-Jun-23 01:30N 49°19' W 123°15'510.1
2017-Jun-23 01:00N 49°18' W 123°07'1 2.3
2017-Jun-23 00:30N 49°17' W 123°07'0 0.0
2017-Jun-23 00:00N 49°17' W 123°07'0 0.0
2017-Jun-22 23:30N 49°17' W 123°07'0 0.0
2017-Jun-22 23:00N 49°17' W 123°07'0 0.0
2017-Jun-22 22:30N 49°17' W 123°07'0 0.0
2017-Jun-22 22:00N 49°17' W 123°07'0 0.0
2017-Jun-22 21:30N 49°17' W 123°07'0 0.0
2017-Jun-22 21:00N 49°17' W 123°07'0 0.0
2017-Jun-22 20:30N 49°17' W 123°07'0 0.0
2017-Jun-22 20:00N 49°17' W 123°07'0 0.0
2017-Jun-22 19:30N 49°17' W 123°07'0 0.0
2017-Jun-22 19:00N 49°17' W 123°07'0 0.0
2017-Jun-22 18:30N 49°17' W 123°07'0 0.0
2017-Jun-22 18:00N 49°17' W 123°07'0 0.0
2017-Jun-22 17:30N 49°17' W 123°07'0 0.0
2017-Jun-22 17:00N 49°17' W 123°07'0 0.0
2017-Jun-22 16:30N 49°17' W 123°07'0 0.0
2017-Jun-22 16:00N 49°17' W 123°07'0 0.0
2017-Jun-22 15:30N 49°17' W 123°07'0 0.0
2017-Jun-22 15:00N 49°17' W 123°07'0 0.0
2017-Jun-22 14:01N 49°17' W 123°07'2 3.6
2017-Jun-22 13:30N 49°19' W 123°08'713.4
2017-Jun-22 13:00N 49°18' W 123°18'714.2
2017-Jun-22 12:30N 49°18' W 123°29'714.1
2017-Jun-22 12:00N 49°19' W 123°40'714.1
2017-Jun-22 11:30N 49°20' W 123°51'714.4
2017-Jun-22 11:00N 49°22' W 124°01'714.1
2017-Jun-22 10:30N 49°24' W 124°12'714.1
2017-Jun-22 10:00N 49°26' W 124°22'714.1
2017-Jun-22 09:30N 49°30' W 124°30'713.9
2017-Jun-22 09:00N 49°36' W 124°37'713.4
2017-Jun-22 08:30N 49°42' W 124°43'713.8
2017-Jun-22 08:00N 49°47' W 124°48'713.9
2017-Jun-22 07:30N 49°50' W 124°58'713.6
2017-Jun-22 07:00N 49°55' W 125°06'713.3
2017-Jun-22 06:31N 49°60' W 125°12'713.8
2017-Jun-22 06:00N 50°06' W 125°18'612.3
2017-Jun-22 05:31N 50°11' W 125°22'612.7
2017-Jun-22 05:00N 50°18' W 125°25'1012.9
2017-Jun-22 04:14N 50°22' W 125°39'314.8
2017-Jun-22 04:00N 50°22' W 125°44'914.6
2017-Jun-22 03:23N 50°25' W 125°58'9514.5
2017-Jun-21 20:47N 51°09' W 128°11'414.7
2017-Jun-21 20:29N 51°12' W 128°17'715.0
2017-Jun-21 20:01N 51°16' W 128°26'714.9
2017-Jun-21 19:31N 51°21' W 128°35'714.9
2017-Jun-21 19:00N 51°25' W 128°45'714.9
2017-Jun-21 18:31N 51°29' W 128°55'914.8
2017-Jun-21 17:53N 51°35' W 129°07'614.9
2017-Jun-21 17:30N 51°38' W 129°15'815.1
2017-Jun-21 17:00N 51°42' W 129°25'  
2017-Jun-18 09:11N 58°19' W 135°52'314.6
2017-Jun-18 08:58N 58°19' W 135°57'  
Track history (hours):
 
Tides and Currents Weather Stations Pressure Air Temp Water Temp Dewpoint Dewpoint Depression Visibility Wind Speed Wind Dir Waves Ship Positions

Silver Shadow

Operator: V Ships Leisure SAM

Last reported at 2017-Jun-24 02:04 UTC. Time now 2017-Jun-25 08:36 UTC.
Position N 52°17' W 130°06'.

Length 186 m; draft 6.1 m.

Type: Ship. MMSI: 308628000.

Date/timePositionNaut miles runAvg speedWind from/ knotsBaromVisibWave heightAir tempDewpointWater temp
2017-Jun-24 02:04N 52°17' W 130°06'115.4
2017-Jun-24 02:00N 52°17' W 130°06'815.4
2017-Jun-24 01:30N 52°10' W 130°00'814.9
2017-Jun-24 01:00N 52°03' W 129°55'510.6
2017-Jun-24 00:30N 51°58' W 129°51'815.3
2017-Jun-24 00:01N 51°51' W 129°45'815.2
2017-Jun-23 23:31N 51°46' W 129°36'815.5
2017-Jun-23 23:00N 51°42' W 129°26'815.5
2017-Jun-23 22:30N 51°38' W 129°15'815.5
2017-Jun-23 22:01N 51°34' W 129°05'714.5
2017-Jun-23 21:30N 51°30' W 128°55'815.1
2017-Jun-23 21:00N 51°25' W 128°45'815.2
2017-Jun-23 20:31N 51°21' W 128°35'715.0
2017-Jun-23 20:01N 51°16' W 128°26'815.1
2017-Jun-23 19:31N 51°12' W 128°16'815.1
2017-Jun-23 19:00N 51°07' W 128°06'815.2
2017-Jun-23 18:30N 51°03' W 127°56'715.1
2017-Jun-23 18:01N 50°59' W 127°46'713.5
2017-Jun-23 17:30N 50°54' W 127°38'917.4
2017-Jun-23 17:00N 50°50' W 127°27'917.2
2017-Jun-23 16:30N 50°46' W 127°14'917.3
2017-Jun-23 16:00N 50°43' W 127°01'816.7
2017-Jun-23 15:30N 50°39' W 126°50'1116.3
2017-Jun-23 14:49N 50°31' W 126°38'1818.1
2017-Jun-23 13:50N 50°29' W 126°10'818.0
2017-Jun-23 13:22N 50°25' W 125°58'719.6
2017-Jun-23 13:00N 50°23' W 125°47'1018.3
2017-Jun-23 12:28N 50°21' W 125°32'714.5
2017-Jun-23 12:00N 50°17' W 125°24'816.9
2017-Jun-23 11:31N 50°09' W 125°21'611.2
2017-Jun-23 11:00N 50°05' W 125°16'510.3
2017-Jun-23 10:30N 49°60' W 125°12'5 9.9
2017-Jun-23 10:00N 49°56' W 125°07'510.4
2017-Jun-23 09:30N 49°53' W 125°01'510.8
2017-Jun-23 09:00N 49°49' W 124°55'510.4
2017-Jun-23 08:30N 49°46' W 124°49'510.7
2017-Jun-23 08:00N 49°42' W 124°43'510.4
2017-Jun-23 07:30N 49°38' W 124°38'510.3
2017-Jun-23 06:59N 49°33' W 124°33'510.3
2017-Jun-23 06:30N 49°29' W 124°29'5 9.9
2017-Jun-23 06:00N 49°26' W 124°23'5 9.8
2017-Jun-23 05:30N 49°25' W 124°16'510.1
2017-Jun-23 05:00N 49°23' W 124°08'510.0
2017-Jun-23 04:30N 49°22' W 124°01'510.3
2017-Jun-23 04:00N 49°21' W 123°53'5 9.9
2017-Jun-23 03:30N 49°19' W 123°46'5 9.9
2017-Jun-23 03:00N 49°19' W 123°39'510.1
2017-Jun-23 02:30N 49°19' W 123°31'510.1
2017-Jun-23 02:00N 49°19' W 123°23'510.6
2017-Jun-23 01:30N 49°19' W 123°15'510.1
2017-Jun-23 01:00N 49°18' W 123°07'1 2.3
2017-Jun-23 00:30N 49°17' W 123°07'0 0.0
2017-Jun-23 00:00N 49°17' W 123°07'0 0.0
2017-Jun-22 23:30N 49°17' W 123°07'0 0.0
2017-Jun-22 23:00N 49°17' W 123°07'0 0.0
2017-Jun-22 22:30N 49°17' W 123°07'0 0.0
2017-Jun-22 22:00N 49°17' W 123°07'0 0.0
2017-Jun-22 21:30N 49°17' W 123°07'0 0.0
2017-Jun-22 21:00N 49°17' W 123°07'0 0.0
2017-Jun-22 20:30N 49°17' W 123°07'0 0.0
2017-Jun-22 20:00N 49°17' W 123°07'0 0.0
2017-Jun-22 19:30N 49°17' W 123°07'0 0.0
2017-Jun-22 19:00N 49°17' W 123°07'0 0.0
2017-Jun-22 18:30N 49°17' W 123°07'0 0.0
2017-Jun-22 18:00N 49°17' W 123°07'0 0.0
2017-Jun-22 17:30N 49°17' W 123°07'0 0.0
2017-Jun-22 17:00N 49°17' W 123°07'0 0.0
2017-Jun-22 16:30N 49°17' W 123°07'0 0.0
2017-Jun-22 16:00N 49°17' W 123°07'0 0.0
2017-Jun-22 15:30N 49°17' W 123°07'0 0.0
2017-Jun-22 15:00N 49°17' W 123°07'0 0.0
2017-Jun-22 14:01N 49°17' W 123°07'2 3.6
2017-Jun-22 13:30N 49°19' W 123°08'713.4
2017-Jun-22 13:00N 49°18' W 123°18'714.2
2017-Jun-22 12:30N 49°18' W 123°29'714.1
2017-Jun-22 12:00N 49°19' W 123°40'714.1
2017-Jun-22 11:30N 49°20' W 123°51'714.4
2017-Jun-22 11:00N 49°22' W 124°01'714.1
2017-Jun-22 10:30N 49°24' W 124°12'714.1
2017-Jun-22 10:00N 49°26' W 124°22'714.1
2017-Jun-22 09:30N 49°30' W 124°30'713.9
2017-Jun-22 09:00N 49°36' W 124°37'713.4
2017-Jun-22 08:30N 49°42' W 124°43'713.8
2017-Jun-22 08:00N 49°47' W 124°48'713.9
2017-Jun-22 07:30N 49°50' W 124°58'713.6
2017-Jun-22 07:00N 49°55' W 125°06'713.3
2017-Jun-22 06:31N 49°60' W 125°12'713.8
2017-Jun-22 06:00N 50°06' W 125°18'612.3
2017-Jun-22 05:31N 50°11' W 125°22'612.7
2017-Jun-22 05:00N 50°18' W 125°25'1012.9
2017-Jun-22 04:14N 50°22' W 125°39'314.8
2017-Jun-22 04:00N 50°22' W 125°44'914.6
2017-Jun-22 03:23N 50°25' W 125°58'9514.5
2017-Jun-21 20:47N 51°09' W 128°11'414.7
2017-Jun-21 20:29N 51°12' W 128°17'715.0
2017-Jun-21 20:01N 51°16' W 128°26'714.9
2017-Jun-21 19:31N 51°21' W 128°35'714.9
2017-Jun-21 19:00N 51°25' W 128°45'714.9
2017-Jun-21 18:31N 51°29' W 128°55'914.8
2017-Jun-21 17:53N 51°35' W 129°07'614.9
2017-Jun-21 17:30N 51°38' W 129°15'815.1
2017-Jun-21 17:00N 51°42' W 129°25'  
2017-Jun-18 09:11N 58°19' W 135°52'314.6
2017-Jun-18 08:58N 58°19' W 135°57'  

Dump ship's entire track history